Weather History for KTHA - November, 2012

Change the Weather History Date:

Tuesday, November 20, 2012

  Actual Average (KBNA) Record (KBNA)
Temperature  
Mean Temperature 54 °F 48 °F  
Max Temperature 66 °F 58 °F 78 °F (1942)
Min Temperature 42 °F 38 °F 10 °F (1914)
Degree Days  
Heating Degree Days 11    
Month to date heating degree days  
Since 1 July heating degree days  
Cooling Degree Days 0    
Month to date cooling degree days  
Year to date cooling degree days  
Growing Degree Days 4 (Base 50)    
Moisture  
Dew Point 42 °F    
Average Humidity 62    
Maximum Humidity 87    
Minimum Humidity 37    
Precipitation  
Precipitation 0.00 in 0.16 in 2.63 in (1900)
Month to date precipitation 2.68  
Year to date precipitation 41.38  
Snow  
Snow - 0.00 in 0.10 in (1937)
Month to date snowfall 0.0  
Since 1 July snowfall T  
Since 1 September snowfall T  
Snow Depth -    
Sea Level Pressure  
Sea Level Pressure 30.15 in    
Wind  
Wind Speed 1 mph ()    
Max Wind Speed 8 mph    
Max Gust Speed -    
Visibility 10.0 miles    
Events      
T = Trace of Precipitation, MM = Missing Value Source: Averaged Metar Reports

Daily Weather History Graph

Daily Weather History Graph

Search for Another Location

Airport or City:

Trip Planner

Search our weather history database for the weather conditions in past years. The results will help you decide how hot, cold, wet, or windy it might be!

Date:

Astronomy

Nov. 20, 2012 Rise Set
Actual Time 6:25 AM CST 4:35 PM CST
Civil Twilight 5:58 AM CST 5:02 PM CST
Nautical Twilight 5:27 AM CST 5:33 PM CST
Astronomical Twilight 4:56 AM CST 6:04 PM CST
Moon 12:07 PM CST (11/20) 11:58 PM CST (11/20)
Length of Visible Light 11h 04m
Length of Day
10h 09m
First Quarter, 51% of the Moon is Illuminated
Nov 20
First Quarter
Nov 28
Full
Dec 6
Last Quarter
Dec 13
New
Dec 19
First Quarter

Hourly Weather History & Observations

Time (CST) Temp. Dew Point Humidity Pressure Visibility Wind Dir Wind Speed Gust Speed Precip Events Conditions
12:15 AM 44.6 °F 39.2 °F 81% 30.20 in 10.0 mi Calm Calm - N/A   Partly Cloudy
12:35 AM 42.8 °F 37.4 °F 81% 30.20 in 10.0 mi Calm Calm - N/A   Mostly Cloudy
12:55 AM 44.6 °F 39.2 °F 81% 30.19 in 10.0 mi Calm Calm - N/A   Overcast
1:15 AM 44.6 °F 39.2 °F 81% 30.18 in 10.0 mi Calm Calm - N/A   Overcast
1:35 AM 44.6 °F 41.0 °F 87% 30.18 in 10.0 mi Calm Calm - N/A   Mostly Cloudy
1:55 AM 44.6 °F 39.2 °F 81% 30.18 in 10.0 mi Calm Calm - N/A   Mostly Cloudy
2:15 AM 44.6 °F 39.2 °F 81% 30.19 in 10.0 mi Calm Calm - N/A   Scattered Clouds
2:35 AM 42.8 °F 39.2 °F 87% 30.19 in 10.0 mi Calm Calm - N/A   Partly Cloudy
6:15 AM 44.6 °F 41.0 °F 87% 30.19 in 10.0 mi Calm Calm - N/A   Overcast
6:35 AM 44.6 °F 41.0 °F 87% 30.19 in 10.0 mi Calm Calm - N/A   Mostly Cloudy
6:55 AM 44.6 °F 41.0 °F 87% 30.20 in 10.0 mi Calm Calm - N/A   Scattered Clouds
7:15 AM 44.6 °F 39.2 °F 81% 30.20 in 10.0 mi Calm Calm - N/A   Clear
7:35 AM 46.4 °F 42.8 °F 87% 30.21 in 10.0 mi Calm Calm - N/A   Clear
7:55 AM 50.0 °F 42.8 °F 76% 30.20 in 10.0 mi Calm Calm - N/A   Clear
8:15 AM 51.8 °F 42.8 °F 71% 30.20 in 10.0 mi Calm Calm - N/A   Clear
8:35 AM 55.4 °F 44.6 °F 67% 30.20 in 10.0 mi Calm Calm - N/A   Clear
8:55 AM 59.0 °F 44.6 °F 59% 30.20 in 10.0 mi WNW 3.5 mph - N/A   Clear
9:15 AM 60.8 °F 42.8 °F 52% 30.20 in 10.0 mi Calm Calm - N/A   Clear
9:35 AM 60.8 °F 44.6 °F 55% 30.20 in 10.0 mi WSW 4.6 mph - N/A   Clear
9:55 AM 62.6 °F 44.6 °F 52% 30.20 in 10.0 mi West 6.9 mph - N/A   Clear
10:15 AM 62.6 °F 42.8 °F 48% 30.19 in 10.0 mi WSW 3.5 mph - N/A   Clear
10:35 AM 62.6 °F 42.8 °F 48% 30.18 in 10.0 mi Calm Calm - N/A   Clear
10:55 AM 64.4 °F 42.8 °F 45% 30.17 in 10.0 mi WNW 3.5 mph - N/A   Clear
11:15 AM 64.4 °F 42.8 °F 45% 30.16 in 10.0 mi Calm Calm - N/A   Clear
11:35 AM 64.4 °F 42.8 °F 45% 30.15 in 10.0 mi Calm Calm - N/A   Clear
11:55 AM 64.4 °F 42.8 °F 45% 30.14 in 10.0 mi ESE 3.5 mph - N/A   Partly Cloudy
12:15 PM 66.2 °F 41.0 °F 40% 30.14 in 10.0 mi Variable 4.6 mph - N/A   Mostly Cloudy
12:35 PM 66.2 °F 41.0 °F 40% 30.13 in 10.0 mi Calm Calm - N/A   Mostly Cloudy
12:55 PM 66.2 °F 41.0 °F 40% 30.12 in 10.0 mi West 5.8 mph - N/A   Overcast
1:15 PM 66.2 °F 39.2 °F 37% 30.12 in 10.0 mi WSW 5.8 mph - N/A   Overcast
1:35 PM 66.2 °F 39.2 °F 37% 30.11 in 10.0 mi Variable 5.8 mph - N/A   Overcast
1:55 PM 64.4 °F 41.0 °F 42% 30.10 in 10.0 mi NW 8.1 mph - N/A   Mostly Cloudy
2:15 PM 66.2 °F 42.8 °F 43% 30.09 in 10.0 mi West 3.5 mph - N/A   Mostly Cloudy
2:35 PM 66.2 °F 42.8 °F 43% 30.09 in 10.0 mi West 5.8 mph - N/A   Partly Cloudy
2:55 PM 66.2 °F 41.0 °F 40% 30.09 in 10.0 mi West 3.5 mph - N/A   Clear
3:15 PM 64.4 °F 42.8 °F 45% 30.09 in 10.0 mi WSW 5.8 mph - N/A   Mostly Cloudy
3:35 PM 64.4 °F 42.8 °F 45% 30.09 in 10.0 mi SW 4.6 mph - N/A   Overcast
3:55 PM 64.4 °F 42.8 °F 45% 30.09 in 10.0 mi WNW 3.5 mph - N/A   Overcast
4:15 PM 62.6 °F 42.8 °F 48% 30.09 in 10.0 mi WSW 3.5 mph - N/A   Overcast
4:35 PM 62.6 °F 42.8 °F 48% 30.09 in 10.0 mi SW 3.5 mph - N/A   Mostly Cloudy
4:55 PM 60.8 °F 42.8 °F 52% 30.09 in 10.0 mi SW 3.5 mph - N/A   Mostly Cloudy
5:15 PM 60.8 °F 42.8 °F 52% 30.09 in 10.0 mi Calm Calm - N/A   Mostly Cloudy
5:35 PM 60.8 °F 42.8 °F 52% 30.10 in 10.0 mi Calm Calm - N/A   Overcast
5:55 PM 59.0 °F 42.8 °F 55% 30.10 in 10.0 mi Calm Calm - N/A   Overcast
6:15 PM 59.0 °F 46.4 °F 63% 30.11 in 10.0 mi Calm Calm - N/A   Overcast
6:35 PM 57.2 °F 44.6 °F 63% 30.11 in 10.0 mi Calm Calm - N/A   Overcast
6:55 PM 57.2 °F 44.6 °F 63% 30.12 in 10.0 mi Calm Calm - N/A   Overcast
7:15 PM 57.2 °F 42.8 °F 59% 30.12 in 10.0 mi Calm Calm - N/A   Mostly Cloudy
7:35 PM 57.2 °F 42.8 °F 59% 30.12 in 10.0 mi WSW 3.5 mph - N/A   Mostly Cloudy
7:55 PM 55.4 °F 42.8 °F 63% 30.13 in 10.0 mi WSW 3.5 mph - N/A   Mostly Cloudy
8:15 PM 53.6 °F 42.8 °F 67% 30.13 in 10.0 mi WSW 5.8 mph - N/A   Mostly Cloudy
8:35 PM 53.6 °F 42.8 °F 67% 30.13 in 10.0 mi WSW 4.6 mph - N/A   Partly Cloudy
8:55 PM 51.8 °F 42.8 °F 71% 30.14 in 10.0 mi Calm Calm - N/A   Partly Cloudy
9:15 PM 50.0 °F 42.8 °F 76% 30.14 in 10.0 mi Calm Calm - N/A   Partly Cloudy
9:35 PM 50.0 °F 42.8 °F 76% 30.14 in 10.0 mi Calm Calm - N/A   Mostly Cloudy
9:55 PM 50.0 °F 42.8 °F 76% 30.13 in 10.0 mi Calm Calm - N/A   Overcast
10:15 PM 50.0 °F 42.8 °F 76% 30.13 in 10.0 mi Calm Calm - N/A   Overcast
10:35 PM 51.8 °F 44.6 °F 76% 30.13 in 10.0 mi Calm Calm - N/A   Overcast
10:55 PM 51.8 °F 44.6 °F 76% 30.13 in 10.0 mi Calm Calm - N/A   Overcast
11:15 PM 51.8 °F 42.8 °F 71% 30.13 in 10.0 mi Calm Calm - N/A   Mostly Cloudy
11:35 PM 50.0 °F 42.8 °F 76% 30.13 in 10.0 mi Calm Calm - N/A   Mostly Cloudy
11:55 PM 50.0 °F 44.6 °F 82% 30.13 in 10.0 mi Calm Calm - N/A   Overcast